Temp
16 17 17 17 17 17 17 17 17 17 17 18 17 17 17 17 17 17 17 17 16 16 16 16 16 16 16 16 16 16 16 15 15 16 16 16 16 16 16 17 17 17 17 18 18 18 17 17 17 17 16 16 16 16 16 16 17 17 17 16 17 17 17 18 18 16 14 14 14 14 14 14 13 13 13 13 13 13 13 13 13 13 13 13 13
16 16 16 17 17 17 17 17 17 17 17 17 17 17 17 17 17 17 17 16 16 16 16 16 16 16 16 16 16 16 16 15 15 16 16 16 16 16 16 16 17 17 17 17 18 18 18 17 17 17 17 17 16 16 16 16 16 17 16 16 16 17 17 18 18 17 15 14 14 14 14 14 14 13 13 13 13 13 13 13 13 13 13 13 12
16 16 16 16 17 17 17 17 17 17 17 17 17 17 17 17 17 17 16 16 16 16 16 16 16 16 16 16 16 16 16 15 16 16 16 16 16 16 16 16 17 17 17 17 17 17 18 18 17 17 17 17 17 16 16 16 16 16 16 16 16 16 16 17 17 17 16 15 14 14 14 14 14 14 13 13 13 13 13 13 13 13 13 13 12
16 16 16 16 16 17 17 17 17 17 17 17 17 17 17 17 17 16 16 16 16 16 16 16 16 16 16 16 16 16 16 16 16 16 16 16 16 16 16 16 16 17 17 17 17 17 17 18 17 17 17 17 17 17 16 16 16 16 16 16 15 15 16 17 17 17 17 15 15 15 15 14 14 14 14 13 13 13 13 13 13 13 13 13 12
15 16 16 16 16 16 17 17 17 17 17 17 17 17 17 17 17 16 16 16 16 16 16 16 16 16 16 16 16 16 16 16 16 16 16 16 16 16 16 16 16 17 17 17 17 17 17 17 17 17 17 17 17 17 17 17 16 16 16 16 16 15 15 16 17 17 17 16 15 15 14 14 14 14 14 14 14 13 13 13 13 13 13 13 12
15 15 15 16 16 16 16 17 17 17 17 17 17 17 17 17 17 16 16 16 16 16 16 16 16 16 16 16 16 16 16 16 16 16 16 16 16 16 16 16 16 16 16 17 17 17 17 17 17 17 17 17 17 17 17 17 17 17 17 16 16 15 15 15 16 16 17 17 16 15 14 14 14 14 14 14 14 14 13 13 13 13 13 12 12
14 14 15 16 16 15 15 15 15 15 16 16 16 17 17 16 16 16 16 16 16 16 16 16 16 16 16 16 16 16 16 16 16 16 16 16 16 16 16 16 16 16 16 16 16 16 16 16 17 17 17 17 17 17 17 17 17 17 17 17 16 15 15 15 16 16 16 16 16 15 15 14 14 14 14 14 14 14 14 13 13 12 12 11 11
13 14 14 14 14 14 14 13 14 15 16 16 15 16 16 16 16 17 16 16 16 16 16 16 16 16 16 16 16 16 16 16 16 16 16 16 16 16 16 16 16 16 16 16 16 16 16 16 16 16 16 16 16 16 17 17 17 17 17 17 17 16 15 15 15 16 16 16 16 15 15 15 14 14 14 14 14 14 14 14 13 12 11 11 11
13 13 13 12 12 13 13 13 13 15 16 15 15 15 15 16 16 16 16 16 16 16 16 16 16 16 16 16 16 16 16 16 16 16 16 16 16 16 16 16 16 16 16 16 16 16 16 16 16 16 16 16 16 16 16 16 16 16 17 17 17 16 15 15 15 16 16 16 16 15 15 15 15 14 14 14 14 14 13 13 13 12 11 11 10
12 12 12 12 12 13 13 13 13 14 14 14 14 14 15 15 15 16 16 16 16 16 16 16 16 16 16 16 16 16 16 16 16 16 16 16 16 16 16 16 16 16 16 16 16 16 16 16 16 15 15 15 15 16 16 16 16 16 16 16 17 16 16 15 16 16 16 17 16 15 16 16 15 14 14 14 14 14 13 13 12 11 11 11 11
12 12 12 12 12 12 12 13 13 13 14 14 14 14 15 15 15 15 15 15 15 16 15 15 16 16 16 16 16 16 16 16 16 16 16 16 16 16 16 16 16 16 16 15 15 15 15 15 15 15 15 15 15 15 15 15 15 15 16 16 16 16 16 16 16 16 16 17 16 16 16 16 14 14 14 13 13 13 13 13 12 12 12 13 12
11 11 12 12 12 12 12 12 12 13 13 13 13 13 14 15 15 15 15 15 15 15 15 15 16 16 16 16 16 16 16 16 16 16 16 16 16 16 16 16 16 15 15 15 15 15 15 15 15 15 15 15 15 15 15 15 15 15 15 15 16 16 16 16 16 16 16 16 15 15 16 15 14 14 14 13 13 13 12 12 12 12 12 13 13
10 10 11 11 11 12 12 12 12 12 12 12 12 12 13 14 14 14 14 14 14 15 15 15 16 16 16 16 16 16 16 16 16 16 16 16 16 16 16 16 15 15 15 15 15 15 15 15 15 15 15 15 15 15 14 14 15 15 15 15 15 15 15 15 15 16 16 16 15 15 15 15 14 14 14 14 13 12 12 12 12 12 12 12 12
9 9 10 10 11 11 11 12 12 12 12 12 12 12 13 13 14 14 14 14 14 14 14 15 15 16 16 16 16 15 16 16 16 16 16 16 16 16 16 15 15 15 15 15 15 15 15 15 14 14 15 15 14 14 14 14 14 14 14 14 14 14 14 14 14 15 15 15 15 15 15 15 14 14 14 13 12 12 12 12 11 11 11 11 11
8 8 8 9 10 10 11 11 11 11 11 12 12 12 13 13 13 13 13 13 13 14 14 15 15 15 15 15 15 15 15 15 15 15 15 15 15 15 15 15 15 15 15 14 14 14 14 14 14 14 14 14 14 14 13 13 13 13 13 13 13 14 14 14 14 14 14 14 14 14 14 14 14 14 13 12 12 11 11 11 11 11 11 10 10
7 7 8 8 9 9 10 10 10 11 11 11 12 12 12 12 13 13 13 13 13 13 13 14 14 14 14 14 14 14 14 14 14 14 14 14 14 14 14 14 14 14 14 14 14 14 14 14 14 14 14 14 14 14 13 13 13 13 13 13 13 13 13 13 13 13 13 13 13 13 14 13 13 12 12 11 11 11 11 11 10 10 10 10 9
7 7 8 8 9 9 10 10 10 10 11 11 11 11 11 11 12 12 12 12 12 12 12 12 12 13 13 13 13 13 13 13 13 13 14 14 14 14 14 14 14 14 14 14 14 14 14 14 14 13 14 14 14 13 12 12 12 12 13 12 12 12 12 12 12 12 12 13 13 12 12 12 11 11 11 11 11 10 10 10 9 9 10 11 10
7 7 7 8 9 9 10 10 10 10 10 10 10 10 10 10 11 11 11 11 11 11 11 11 11 12 12 12 13 13 13 13 13 13 13 13 13 13 13 13 14 14 14 14 14 14 14 14 13 13 13 13 13 13 12 12 12 12 12 12 12 11 11 11 11 11 11 12 12 11 11 11 10 10 10 10 10 10 10 10 9 9 10 11 10
7 7 7 8 8 9 9 10 10 10 10 10 10 10 10 10 10 11 11 11 11 11 11 11 11 11 11 12 12 12 12 12 12 12 12 12 12 12 12 13 13 13 13 13 13 13 13 13 13 13 13 13 13 12 12 12 12 12 12 12 11 11 11 11 11 11 11 10 10 10 10 10 10 10 10 9 9 9 9 9 9 9 10 10 9
7 7 7 8 8 8 8 9 9 9 10 10 10 10 10 10 11 11 11 11 11 11 12 12 12 11 11 11 11 12 12 12 12 12 12 12 12 12 12 12 11 12 12 12 12 13 13 13 13 13 13 13 13 12 12 12 12 12 12 11 11 11 11 11 11 10 10 10 10 9 9 9 9 9 9 8 8 8 8 8 8 8 9 9 8
7 7 7 7 8 8 8 8 8 9 9 9 10 10 10 10 10 10 10 10 10 11 11 11 11 11 11 11 11 11 11 11 11 11 11 12 12 12 12 11 11 10 11 11 12 12 12 12 12 13 13 12 12 12 12 12 12 12 12 12 12 12 12 11 11 10 10 10 9 9 8 8 8 8 8 8 7 7 7 7 7 7 7 7 7
6 6 7 7 7 7 7 7 8 8 8 9 9 9 9 10 10 10 10 10 10 10 10 11 11 10 10 10 11 11 11 11 11 11 11 11 11 12 12 11 11 11 11 11 11 11 11 11 12 12 12 12 12 11 11 11 11 12 12 12 12 13 12 11 10 10 9 9 8 8 8 7 7 7 7 6 6 7 7 7 7 6 6 6 6
6 6 6 6 6 6 6 7 7 7 7 8 8 8 8 9 9 9 9 9 10 10 10 10 10 10 9 10 10 10 10 10 10 11 11 11 11 11 11 11 11 11 11 11 10 11 11 11 12 12 12 12 11 11 11 11 11 11 12 12 12 12 12 11 10 9 9 8 8 7 7 7 7 6 6 6 6 6 6 6 6 6 5 5 4
5 5 5 5 5 5 5 5 6 6 6 6 7 7 7 8 8 8 9 9 9 9 9 9 9 8 8 8 8 9 9 9 9 10 10 11 11 11 11 10 10 10 10 10 10 11 11 11 12 12 12 11 11 11 11 10 10 10 10 11 11 11 11 10 9 8 8 8 7 7 7 7 7 6 6 5 6 6 6 5 5 4 4 3 3
4 4 4 4 4 4 4 4 5 5 5 6 6 6 6 6 6 7 7 7 7 7 7 7 7 7 7 7 7 8 8 8 9 9 9 10 10 10 10 10 9 9 9 9 9 10 10 11 11 11 11 11 11 10 10 9 9 9 9 9 9 9 9 9 8 8 8 8 7 7 6 6 6 6 6 6 5 5 4 4 3 3 3 2 2
3 3 3 3 3 4 4 4 4 4 4 5 5 5 5 5 5 6 6 6 6 6 6 6 6 6 6 6 7 7 8 8 8 8 8 9 9 9 9 9 9 8 8 9 9 9 9 10 10 10 10 10 10 10 9 8 8 7 7 7 7 7 8 8 8 8 8 7 7 6 6 5 6 6 6 5 4 4 3 3 3 3 3 3 3
3 3 2 3 3 3 3 3 3 3 4 4 4 4 4 4 4 5 5 5 5 5 5 5 5 5 5 5 6 7 7 7 8 8 8 8 9 9 9 8 8 8 8 8 8 7 8 9 9 9 9 9 9 9 9 8 7 6 6 6 6 7 7 8 8 8 8 7 6 6 5 5 5 5 5 4 3 3 3 3 3 3 3 3 3
2 2 2 3 3 3 3 3 3 3 3 3 3 3 3 3 3 3 3 4 3 3 3 4 4 4 4 4 5 6 6 7 7 7 7 7 8 8 8 8 8 8 8 7 6 6 7 7 7 7 7 8 8 8 8 8 7 7 6 6 6 6 7 7 8 8 7 7 6 6 5 5 5 4 4 3 3 3 2 3 3 3 3 3 3
2 2 2 3 3 3 3 3 3 3 3 3 3 2 2 2 2 2 2 2 2 2 2 2 2 3 3 3 4 4 5 5 5 6 6 6 7 7 8 8 8 8 8 7 6 5 6 6 6 6 6 6 7 6 6 7 7 7 7 6 6 6 6 7 7 7 7 6 6 6 5 5 4 4 3 3 3 3 2 2 2 3 3 3 4
2 2 2 2 3 3 3 3 4 4 3 3 2 2 2 2 2 2 2 1 2 2 2 1 2 2 3 3 3 3 3 4 5 5 6 6 6 6 7 7 8 8 8 7 6 5 5 6 6 5 5 6 6 6 6 7 7 7 7 6 6 6 6 6 6 6 6 6 6 5 5 4 4 3 3 3 2 2 2 2 2 2 3 3 3
2 2 2 2 3 3 3 3 3 4 4 4 3 2 2 2 2 2 2 2 2 2 2 2 2 2 2 3 3 3 3 4 4 5 5 5 6 6 7 7 7 8 8 7 5 5 5 6 5 5 5 5 6 6 7 7 7 7 6 6 6 6 6 6 6 5 5 5 5 5 4 4 4 3 3 2 2 2 2 2 2 2 2 3 3
2 2 2 2 3 3 3 3 3 3 3 4 3 2 2 1 2 2 2 2 2 2 2 2 2 2 2 2 3 3 3 4 4 5 5 5 6 6 6 7 7 7 7 6 5 5 6 6 6 6 5 5 6 6 7 7 7 7 7 6 5 6 6 5 5 5 5 4 4 4 3 3 3 2 2 2 2 2 2 2 2 2 2 2 2
2 2 2 2 2 3 3 3 3 3 3 3 3 2 1 -0 0 0 1 1 1 2 2 2 2 2 2 2 2 2 3 3 4 4 4 5 5 6 6 7 7 7 7 6 5 6 6 6 6 6 6 6 6 5 5 5 6 6 6 6 5 5 5 5 5 4 4 4 3 3 2 2 2 2 2 2 2 2 2 2 2 1 1 2 2
2 2 2 2 2 2 2 2 2 2 2 2 1 0 -1 -1 -2 -1 -1 -1 -0 1 1 2 2 2 2 2 2 3 3 3 3 4 4 4 4 5 6 6 6 6 6 5 5 5 5 5 5 5 5 5 5 5 4 4 4 4 5 6 5 5 5 4 4 4 4 3 3 2 2 2 2 2 2 2 2 2 2 2 2 2 2 2 2
2 2 2 2 2 2 2 2 2 2 1 0 -1 -1 -2 -2 -2 -2 -2 -1 -1 -1 0 1 2 3 3 2 2 3 3 4 4 4 4 3 4 4 4 5 5 5 5 5 4 4 4 4 4 4 4 4 4 4 4 3 3 3 4 5 5 5 4 4 4 4 3 3 2 2 2 2 2 2 2 2 2 2 2 2 2 1 1 1 2
2 2 2 2 2 2 2 2 2 2 1 -1 -2 -2 -2 -2 -2 -2 -1 -1 -1 -1 -1 -0 1 2 3 3 3 3 3 3 3 4 4 3 3 4 4 4 4 4 4 4 4 3 3 3 4 4 3 3 3 3 3 3 3 3 3 3 4 4 4 4 4 3 3 2 2 2 2 2 2 2 2 2 2 2 2 2 1 1 1 1 1
2 2 2 2 2 2 2 2 2 2 0 -2 -2 -2 -2 -2 -2 -1 -1 -1 -1 -1 -1 -1 -0 1 2 2 3 3 3 2 3 3 3 3 3 3 3 3 3 3 3 3 3 2 2 2 2 2 3 3 3 3 3 3 3 2 2 2 3 3 3 3 3 3 2 2 2 2 2 2 2 2 2 2 2 1 1 1 1 1 0 0 1
3 2 2 2 2 2 2 2 2 1 -1 -2 -2 -2 -2 -1 -1 -1 -1 -1 -1 -1 -1 -1 -1 -1 -0 0 1 2 2 2 2 2 2 2 2 2 2 2 2 3 3 2 2 2 2 2 2 2 2 3 3 3 3 3 2 2 2 3 3 4 4 3 3 3 2 2 2 3 3 3 3 3 2 2 2 1 1 1 1 1 1 1 1
3 2 2 2 2 2 2 2 1 0 -1 -2 -2 -2 -2 -1 -1 -1 -1 -1 -1 -1 -1 -1 -1 -1 -1 -1 -0 1 1 1 1 1 1 1 1 1 1 1 2 2 2 2 2 2 1 2 2 2 2 2 2 2 2 2 2 3 3 3 3 3 3 3 3 3 2 3 3 3 3 3 2 2 2 2 2 1 1 1 1 1 2 2 2
3 3 2 2 2 2 2 2 2 1 -1 -2 -2 -2 -1 -1 -1 -1 -1 -1 -1 -1 -1 -1 -1 -1 -2 -2 -1 -1 -0 -0 -0 -1 -1 -0 0 0 0 0 0 1 1 1 2 2 2 2 2 2 2 2 2 2 2 2 2 2 3 3 2 2 2 2 2 2 2 3 3 3 3 2 2 2 2 2 2 1 1 1 1 1 1 2 2
3 3 2 2 2 2 2 2 2 1 -0 -1 -2 -2 -1 -1 -1 -1 -1 -1 -1 -2 -2 -1 -1 -2 -2 -1 -1 -1 -1 -1 -1 -1 -1 -1 -1 -1 -1 -1 -0 0 1 1 1 1 1 2 2 2 2 2 2 2 2 2 2 1 1 1 1 1 1 2 2 2 2 3 3 3 2 2 2 2 1 1 1 1 1 1 1 1 1 1 1
3 3 2 2 2 2 2 2 2 1 1 -1 -1 -2 -1 -1 -1 -1 -1 -2 -2 -2 -2 -2 -2 -2 -2 -1 -1 -2 -2 -2 -2 -2 -2 -2 -2 -2 -2 -1 -1 0 1 0 0 1 1 1 1 2 2 1 1 1 1 1 1 1 1 1 1 1 2 2 2 2 2 2 2 2 2 2 2 1 1 1 0 0 1 1 1 1 1 1 1
3 3 3 2 2 2 2 2 2 2 1 0 -1 -1 -1 -1 -1 -1 -1 -1 -1 -2 -2 -2 -2 -2 -2 -1 -2 -2 -2 -2 -2 -2 -2 -2 -2 -2 -2 -2 -1 -0 -0 -0 -0 0 0 0 1 1 1 1 1 1 1 0 0 0 0 0 1 1 2 2 2 1 1 1 2 1 1 1 1 1 0 -0 0 0 0 0 1 1 1 1 1
3 3 3 2 2 2 2 2 2 2 2 1 0 -0 -1 -1 -1 -1 -1 -1 -1 -1 -2 -2 -2 -2 -2 -2 -2 -2 -2 -2 -2 -2 -2 -3 -3 -3 -2 -1 -0 -0 -0 -0 0 0 0 0 1 1 1 0 0 0 -0 -0 -0 -0 0 0 1 1 1 1 1 1 1 1 1 1 1 1 1 0 -0 -0 -0 -0 -0 0 1 1 1 1 1
3 3 3 2 2 2 2 2 2 2 2 1 1 1 0 -0 -1 -1 -1 -1 -1 -1 -1 -1 -2 -2 -2 -2 -2 -2 -2 -2 -2 -2 -2 -2 -2 -2 -2 -0 0 0 0 0 1 0 0 0 0 0 0 0 0 0 -0 -0 0 0 1 1 1 1 1 1 1 0 0 0 0 0 0 0 0 -0 -0 -1 -1 -1 -0 0 0 0 1 1 1
3 3 3 3 2 2 2 2 2 2 2 2 1 1 1 -0 -0 -0 -0 -1 -1 -1 -1 -1 -1 -1 -2 -2 -2 -2 -2 -2 -2 -2 -2 -1 -1 -0 0 1 1 1 1 1 1 1 1 1 1 1 1 1 1 1 1 1 1 1 1 1 1 1 1 0 0 0 0 0 0 0 0 0 0 -0 -0 -1 -1 -1 -1 -0 -1 -0 0 1 1
3 3 3 3 3 3 3 2 2 2 2 2 1 1 1 0 -0 -0 -0 -0 -1 -1 -1 -1 -1 -1 -1 -1 -1 -2 -2 -2 -2 -1 -1 -1 0 1 1 1 1 1 1 1 1 1 2 2 1 1 1 1 1 1 1 1 1 1 1 1 1 1 1 1 1 1 1 1 0 0 0 0 -0 -0 -0 -1 -1 -1 -1 -1 -1 -1 -0 0 0
3 3 3 3 3 3 3 3 2 2 2 2 1 1 1 1 0 -0 -1 -1 -1 -1 -1 -1 -1 -1 -1 -1 -1 -1 -1 -1 -1 -1 -0 -0 -0 0 1 1 1 1 1 1 1 1 1 1 1 1 1 1 1 1 1 1 1 1 1 0 0 0 0 0 0 0 0 0 0 0 0 -0 -0 -0 -0 -1 -1 -1 -1 -1 -1 -1 -0 0 0
3 3 3 3 3 3 3 3 2 2 2 2 1 1 1 1 0 -1 -1 -1 -1 -1 -0 -0 -1 -1 -1 -1 -1 -1 -1 -1 -1 -0 -0 -0 -0 0 0 0 0 1 1 1 1 1 1 1 1 1 1 1 1 1 1 0 0 0 0 0 -0 0 0 0 0 0 0 0 -0 -0 -0 -0 -0 -0 -1 -1 -1 -1 -1 -1 -1 -1 -1 -0 0
3 3 3 3 3 3 3 3 3 2 2 1 1 1 1 1 0 -0 -1 -1 -1 -0 -0 -0 -1 -1 -1 -1 -1 -1 -1 -1 -1 -1 -1 -1 -1 -1 -0 -0 -0 -0 -0 -0 -0 -0 -0 -0 0 0 0 0 0 0 -0 -0 -0 -0 -0 -0 -0 -0 -0 -0 -0 -0 -0 -0 -0 -1 -1 -1 -1 -1 -1 -1 -2 -2 -1 -1 -1 -1 -1 -0 -0
3 3 3 3 3 3 3 3 2 2 2 2 1 1 1 1 0 -0 -0 -0 -0 -0 -0 -0 -0 -0 -1 -1 -1 -1 -1 -1 -1 -1 -1 -1 -1 -1 -1 -1 -1 -1 -1 -1 -1 -1 -1 -1 -1 -1 -1 -1 -1 -1 -1 -1 -1 -1 -1 -1 -1 -1 -1 -1 -1 -1 -1 -1 -1 -1 -1 -1 -1 -2 -2 -2 -2 -2 -2 -1 -1 -1 -1 -1 -0
Height
802 803 804 806 808 809 811 813 816 818 819 820 821 822 824 826 828 830 832 833 835 836 838 839 840 841 842 843 844 844 845 846 847 848 849 850 851 851 852 853 853 854 854 855 855 855 855 855 856 857 857 858 860 861 862 864 865 866 867 869 870 871 871 872 872 875 879 880 881 882 883 883 884 885 886 887 887 888 889 890 891 891 891 892 892
800 802 803 805 807 809 811 813 815 817 818 820 821 822 824 826 828 830 831 833 834 836 837 838 840 841 842 843 844 845 845 846 847 848 849 850 851 852 852 853 854 855 855 856 856 856 856 857 857 858 858 859 860 862 863 864 865 867 867 869 870 871 871 872 872 874 877 879 880 881 882 883 884 885 885 886 887 888 889 890 891 891 891 892 892
798 800 802 804 806 807 809 812 814 816 818 819 821 822 824 826 827 829 831 832 834 835 837 838 840 841 842 843 845 846 846 847 847 848 849 850 851 852 853 854 855 855 856 856 857 857 857 858 858 859 859 860 861 862 863 864 865 867 867 868 869 870 871 872 872 873 875 877 879 880 881 882 883 884 885 885 886 887 889 890 890 891 891 891 892
797 799 801 803 804 806 808 810 812 814 817 819 820 822 824 826 827 829 831 832 833 835 836 838 839 841 842 844 845 846 847 847 848 849 849 850 852 853 854 855 855 856 857 857 857 858 858 859 859 860 860 861 862 863 863 864 865 866 867 867 868 869 870 871 872 872 873 875 877 878 879 881 882 883 884 884 885 887 888 889 889 890 890 890 891
796 798 800 802 804 805 806 808 811 813 815 818 820 822 824 826 828 829 831 832 833 835 836 838 839 841 842 844 845 846 847 848 848 849 850 851 852 854 855 855 856 857 857 858 858 859 859 859 860 860 861 862 862 863 863 864 865 865 866 866 866 867 868 869 870 871 872 873 875 877 878 880 881 882 883 884 885 886 887 887 888 889 889 889 890
797 799 800 801 803 804 805 807 809 812 815 818 820 823 825 827 828 830 831 832 834 835 836 838 839 841 842 843 845 846 847 848 849 849 850 851 853 854 855 856 857 857 858 858 859 859 859 860 860 861 861 862 862 863 863 863 864 864 864 865 865 865 866 868 869 870 871 872 874 876 878 879 880 881 882 883 884 885 886 886 887 888 888 889 889
798 799 800 800 801 803 805 807 809 812 816 819 821 823 825 827 829 830 831 833 834 835 836 838 839 840 842 843 844 845 847 848 849 850 851 852 853 854 855 856 857 858 858 859 859 859 860 860 860 861 861 862 862 863 863 863 863 863 863 863 863 864 865 867 868 870 871 872 873 875 876 878 879 880 881 881 882 883 884 885 886 886 887 888 888
799 800 801 802 802 804 806 808 811 814 816 818 821 823 825 828 829 830 831 832 834 835 837 838 839 840 842 843 844 845 846 848 849 850 851 852 853 854 855 856 857 857 858 859 859 859 860 860 860 861 861 862 862 862 862 862 862 863 863 862 862 863 864 865 866 868 869 870 872 873 874 876 877 878 879 880 881 881 882 883 884 884 885 886 887
799 800 801 803 805 806 808 810 814 816 817 818 820 823 826 828 829 830 831 832 834 835 837 838 839 841 841 842 844 845 846 847 848 849 850 851 852 853 855 856 856 857 858 858 859 859 859 860 860 860 861 861 861 861 861 862 862 862 862 862 862 862 862 863 864 866 867 868 870 871 872 873 874 875 876 877 878 879 879 881 882 883 884 885 886
801 802 802 804 806 807 809 810 813 816 817 819 820 823 825 827 829 831 831 832 833 835 837 838 840 841 842 842 843 845 846 847 848 849 850 851 851 852 854 855 855 856 857 857 858 858 859 859 859 860 860 860 860 861 861 861 861 861 861 861 861 861 861 862 862 863 864 866 867 868 869 870 871 873 874 875 876 877 878 880 881 882 883 884 885
802 803 804 806 807 808 809 810 812 814 817 818 821 823 826 828 831 832 831 832 832 834 836 838 840 841 842 842 843 844 846 847 848 849 849 850 851 851 853 853 854 855 856 856 857 857 857 858 858 859 859 859 859 859 860 860 860 860 860 860 860 860 860 860 861 861 862 863 864 865 866 867 868 870 871 872 874 875 877 878 879 880 881 882 883
803 804 805 806 808 809 810 811 812 815 816 817 820 823 826 828 831 831 831 831 832 834 836 838 839 840 841 841 842 843 845 846 847 848 848 848 849 850 851 852 853 853 854 855 855 855 856 856 857 857 857 858 858 858 858 858 859 859 859 859 859 859 859 859 859 860 860 861 862 862 863 864 865 867 868 870 871 873 875 876 877 878 880 880 881
804 805 806 807 808 810 811 812 814 816 817 819 821 824 826 827 829 829 830 831 832 834 836 837 838 839 839 840 841 842 843 845 845 846 847 847 848 849 850 850 851 852 852 853 853 854 854 855 855 855 855 856 856 856 857 857 857 858 858 858 858 858 859 859 859 859 859 859 860 860 861 862 863 865 866 868 869 871 873 875 876 877 879 879 880
807 807 808 809 810 811 812 814 815 817 819 820 822 825 826 827 828 829 830 832 833 834 836 836 836 837 838 838 840 841 843 843 844 845 846 846 847 847 848 848 849 850 850 851 852 852 852 853 853 853 853 854 854 854 855 855 855 856 856 857 857 858 858 858 858 859 859 859 859 859 860 861 862 863 865 866 868 870 872 874 875 877 877 877 878
810 811 811 811 812 813 814 816 817 818 820 820 822 824 826 827 828 829 830 832 833 834 834 834 835 836 836 837 839 840 841 842 843 843 844 845 845 846 846 846 847 848 848 849 850 850 850 851 851 851 851 851 851 852 852 853 854 854 855 855 856 856 857 857 857 858 858 858 859 859 860 860 861 863 864 866 868 869 871 872 874 875 875 876 876
814 814 814 815 815 816 816 817 818 819 820 821 822 824 825 827 828 829 830 831 832 832 832 833 834 834 835 836 837 838 839 840 841 841 842 843 843 844 844 844 845 845 846 846 847 848 848 848 848 849 849 848 848 849 850 851 852 852 853 853 854 855 855 856 856 857 857 857 858 858 859 860 861 863 864 865 867 869 870 871 872 873 874 875 876
819 819 818 819 819 819 819 819 819 820 821 822 823 824 825 826 827 828 829 829 830 830 831 832 833 833 834 835 836 837 838 839 840 840 840 841 842 842 842 843 843 843 843 843 844 845 845 846 846 846 846 846 846 846 847 848 849 850 851 851 852 853 853 854 854 855 856 856 857 858 859 860 862 864 865 866 867 868 869 870 871 872 873 873 874
823 823 823 823 822 822 822 822 822 822 823 823 824 825 826 827 828 828 828 829 829 830 831 832 832 833 833 834 835 836 837 838 838 839 839 840 840 841 841 841 841 841 841 841 842 842 843 843 843 844 844 844 844 844 845 846 847 848 848 849 850 850 851 852 852 853 854 855 856 857 859 860 862 864 865 866 867 868 869 869 870 871 871 872 873
828 828 827 827 826 826 826 825 825 825 825 826 826 827 827 828 829 829 829 830 830 831 831 832 832 833 834 834 835 836 836 837 837 838 838 838 839 839 839 839 839 839 839 839 840 840 840 840 841 841 841 841 842 843 843 844 845 846 846 847 848 848 849 850 851 852 853 854 855 857 859 860 862 864 865 866 867 867 868 868 869 870 871 871 872
832 831 831 830 829 829 829 828 828 828 828 828 828 829 829 830 830 831 831 832 832 832 833 832 833 833 834 835 835 835 835 836 836 837 837 837 837 837 837 837 837 837 837 837 838 838 838 838 838 839 839 840 840 841 842 843 843 844 845 846 846 847 848 849 850 851 852 853 855 857 858 860 861 863 864 865 866 867 867 868 869 870 870 871 872
835 834 833 832 832 832 831 831 831 831 831 831 831 831 831 831 832 832 833 833 834 834 834 834 833 834 834 835 835 835 835 836 836 836 836 836 835 835 835 835 836 836 836 836 837 837 837 837 837 837 838 838 839 840 840 841 842 842 843 844 844 845 846 847 849 850 851 853 855 856 858 860 861 863 864 865 866 866 867 868 868 869 870 871 871
837 836 835 835 834 835 834 834 834 833 833 833 833 833 833 833 833 833 834 835 835 835 835 834 834 835 835 835 835 835 836 836 835 835 835 834 834 834 834 834 834 835 835 835 836 836 836 836 835 835 836 837 838 839 839 840 840 841 841 842 843 844 845 846 847 849 851 853 855 856 858 859 861 862 863 864 865 866 867 867 868 869 869 870 871
838 838 837 836 836 837 836 836 836 835 835 835 835 835 835 835 834 834 835 835 835 835 834 835 835 836 836 836 836 836 835 835 834 834 834 834 834 834 834 834 834 834 834 835 835 835 835 834 834 834 835 835 836 837 837 838 839 840 840 841 841 842 843 844 846 848 850 852 854 856 857 859 861 862 863 864 865 866 866 867 868 869 869 869 869
839 839 838 838 838 838 838 838 837 837 836 836 836 836 836 835 835 835 835 835 835 834 834 835 835 836 836 836 836 836 835 834 834 834 833 833 833 833 833 834 834 834 834 834 834 834 834 833 833 833 833 833 834 835 835 836 838 839 839 840 840 840 841 842 844 846 849 851 853 855 857 859 860 862 863 863 864 865 867 868 869 869 869 868 868
841 840 840 840 840 839 839 839 838 838 837 837 836 836 836 836 836 835 835 835 835 835 835 835 835 836 836 836 836 835 835 834 833 833 832 832 832 832 832 833 833 834 834 833 833 832 832 832 832 832 832 832 832 833 833 834 836 838 839 840 840 839 839 840 841 844 847 850 852 854 856 858 860 861 862 863 864 866 867 868 869 869 868 868 868
842 841 841 841 841 840 840 839 839 838 838 837 837 837 836 837 836 836 836 836 836 836 836 836 836 836 836 836 835 835 834 834 833 832 832 831 831 831 831 832 832 833 832 832 831 831 831 831 831 831 831 831 831 831 832 833 835 837 839 840 840 840 839 839 840 842 845 848 850 852 855 857 858 860 861 863 865 867 868 868 869 868 868 867 868
843 843 843 843 842 842 841 840 840 839 839 838 838 838 838 838 837 837 836 836 836 836 836 836 836 836 836 835 835 834 833 832 832 831 831 830 830 830 831 831 831 831 831 830 829 829 829 830 830 829 829 829 830 830 830 831 833 836 838 840 841 841 840 841 841 841 843 847 849 851 853 855 857 859 862 864 866 867 868 868 867 866 866 867 867
844 844 844 844 844 843 843 842 842 841 841 840 840 840 840 839 838 838 838 837 837 837 837 837 837 836 836 836 835 834 833 832 832 831 831 830 830 830 830 831 830 830 830 829 828 828 828 828 828 828 828 828 828 829 828 828 830 833 836 839 840 841 841 841 841 841 843 845 848 851 853 855 857 860 862 864 865 866 866 866 865 864 865 865 866
846 846 845 845 845 844 844 843 843 843 842 842 842 842 841 841 840 840 839 839 839 838 838 838 838 837 837 836 835 835 834 833 833 832 832 832 831 831 831 830 830 829 828 827 827 827 827 827 827 827 826 826 827 827 827 826 827 829 832 834 837 839 840 840 840 841 843 846 848 851 854 856 858 860 862 864 864 864 864 864 863 863 863 864 864
847 847 847 846 846 845 844 844 844 843 843 843 843 843 842 842 841 841 841 841 840 839 839 838 838 837 837 836 836 835 835 834 833 833 832 832 831 831 830 829 829 828 827 826 826 826 826 826 826 826 826 825 825 825 825 825 825 826 828 831 834 837 839 839 839 841 843 846 850 853 855 857 859 861 862 863 863 863 862 862 862 861 861 862 863
848 848 848 848 847 846 846 845 845 844 844 843 843 843 843 843 843 842 842 842 841 840 840 839 838 837 836 836 835 835 834 834 833 832 831 831 830 829 829 828 827 826 825 824 824 825 825 825 825 825 826 826 825 824 823 823 823 824 826 828 831 833 834 836 839 841 843 846 849 852 854 856 859 860 862 862 863 862 862 861 861 860 860 861 862
849 849 849 849 848 848 847 847 846 846 845 844 844 843 844 844 844 844 843 842 842 841 840 839 838 837 836 835 834 834 833 833 832 831 830 829 828 827 826 825 825 824 823 823 823 824 824 824 825 825 826 826 826 825 824 823 822 822 823 826 829 831 833 835 838 840 842 845 847 850 852 854 857 859 860 861 862 861 860 860 859 859 860 861 861
850 850 850 849 849 849 848 848 847 847 846 846 845 844 844 844 844 844 843 843 842 841 841 840 839 838 837 836 835 834 833 832 832 831 830 829 828 826 825 824 823 822 822 822 822 823 823 824 824 825 825 825 826 826 826 825 824 823 823 825 828 831 833 836 838 840 842 844 847 849 851 853 855 857 858 859 860 859 859 858 859 859 860 860 860
852 852 851 851 851 850 850 850 849 848 848 847 846 845 845 844 844 844 843 843 842 841 841 840 839 839 838 836 835 834 833 832 831 831 830 828 827 826 825 823 822 821 821 822 822 822 823 823 823 823 824 825 825 825 826 826 826 826 826 825 827 830 833 836 838 840 842 844 846 848 850 852 854 856 857 858 858 857 857 858 858 859 859 859 859
853 853 853 852 852 852 852 851 851 850 849 848 848 847 847 846 845 845 844 843 842 842 841 840 839 839 838 837 836 834 833 832 831 830 828 827 826 825 824 823 823 822 822 822 822 822 822 822 822 822 823 824 824 824 825 826 827 827 827 826 826 828 832 835 837 840 842 844 845 847 849 851 853 854 855 855 856 856 857 857 858 858 858 858 859
855 855 854 854 854 854 853 853 852 851 850 850 849 849 848 848 847 847 846 845 844 843 842 840 839 838 837 836 835 834 832 831 830 829 828 827 825 824 824 824 823 823 823 822 822 821 820 820 820 820 821 821 822 823 824 826 826 827 828 826 825 827 830 834 837 839 841 843 845 847 849 850 851 852 853 854 854 855 856 856 857 857 857 858 858
856 856 856 855 855 855 854 853 853 852 851 851 851 850 850 850 849 848 847 846 845 844 843 841 840 838 837 836 834 833 832 831 830 829 828 826 826 825 825 824 824 824 823 822 822 821 820 819 819 819 819 819 820 821 822 823 825 827 828 828 829 830 833 835 836 838 840 842 845 847 849 849 850 851 851 852 853 854 855 855 856 856 857 857 857
856 856 856 856 856 855 854 854 853 852 852 852 852 851 851 851 850 849 848 847 846 845 844 843 841 840 838 836 835 833 832 831 830 829 828 827 826 826 826 826 825 825 824 823 822 821 820 819 818 817 817 818 819 819 820 821 823 825 827 829 830 832 834 835 836 838 840 842 844 846 848 848 849 850 850 851 852 852 853 854 855 855 856 856 856
857 857 857 856 856 856 855 854 854 853 853 853 852 852 852 852 851 850 849 848 847 847 845 844 843 841 840 838 836 834 833 832 831 830 829 828 828 827 827 826 826 825 825 824 822 821 820 818 817 817 816 816 817 818 818 819 821 824 826 827 829 831 832 834 836 838 841 843 845 846 847 848 849 850 850 851 851 852 852 853 854 855 855 856 856
857 857 857 857 857 856 856 855 854 854 853 853 853 853 853 852 852 851 850 849 848 847 846 845 844 843 841 839 837 835 834 833 832 832 831 830 829 828 828 827 827 826 825 824 822 821 820 819 817 816 816 816 817 817 818 819 820 822 824 826 828 830 832 834 836 840 843 844 845 846 847 848 849 850 850 851 851 851 852 853 854 855 855 855 855
858 858 858 858 857 857 857 856 855 855 854 854 854 854 854 853 853 852 851 850 849 848 847 846 845 844 842 840 838 837 836 835 834 833 832 831 830 829 829 828 827 826 825 824 823 822 821 820 819 818 817 817 817 817 818 819 820 821 823 825 826 829 831 834 838 842 844 846 846 847 848 849 849 850 850 850 850 851 852 852 853 854 854 854 854
858 858 858 858 858 858 857 857 856 856 855 855 855 855 855 854 854 853 852 851 850 849 849 847 846 845 843 841 839 837 837 836 835 834 833 832 831 830 829 828 827 827 826 825 824 823 822 821 820 820 820 819 819 819 820 820 821 822 823 825 827 829 831 835 839 843 845 846 847 848 849 849 850 850 850 850 850 850 851 852 853 853 853 854 854
858 858 858 858 858 858 858 857 857 856 856 856 856 855 855 855 854 853 853 852 851 850 849 848 847 845 844 841 839 838 838 838 837 836 835 834 833 832 831 830 829 828 827 826 825 824 824 823 823 823 823 823 823 823 823 823 823 824 825 827 829 831 834 837 841 843 845 847 848 849 850 850 850 850 850 850 850 850 851 851 852 853 853 853 853
858 858 858 858 859 858 858 858 857 857 857 857 856 856 855 855 855 854 854 853 852 851 850 849 848 847 845 843 841 840 840 840 838 838 837 836 835 834 833 831 831 830 829 828 828 826 826 825 825 825 826 826 826 826 827 827 827 828 829 830 832 834 837 840 842 844 846 847 848 849 850 850 849 849 849 849 850 850 851 851 852 852 852 852 852
858 858 858 858 858 858 858 858 857 857 857 857 857 856 856 856 856 855 855 854 853 853 852 851 850 849 847 846 844 843 843 842 841 840 839 838 837 836 834 833 833 833 832 831 831 830 829 829 829 829 829 830 830 830 830 830 831 832 833 834 835 837 839 841 843 845 846 847 848 849 849 849 849 849 849 849 850 850 851 851 852 852 852 852 852
858 858 858 858 858 858 857 857 857 857 857 857 857 857 857 857 857 856 856 855 855 854 854 853 852 851 850 849 847 847 846 845 844 842 841 840 839 838 837 837 836 836 835 835 834 834 833 833 833 833 833 834 834 834 834 834 834 834 835 837 838 839 841 842 844 845 846 847 848 848 848 848 848 848 849 849 850 850 851 851 851 852 852 851 851
857 857 857 857 857 857 857 857 857 857 857 857 857 857 857 857 857 857 857 856 856 855 855 855 854 853 852 851 850 849 849 847 846 845 844 843 842 841 840 840 840 840 839 839 838 838 837 837 837 837 837 837 837 836 836 837 837 837 838 839 840 841 842 843 844 845 846 846 847 847 847 848 848 848 849 849 849 850 850 851 851 851 851 851 851
856 856 856 857 857 856 856 856 857 857 857 857 857 858 858 858 858 858 858 857 857 857 856 856 855 854 853 852 852 851 851 850 849 848 847 847 846 845 844 843 843 843 843 842 842 841 841 840 840 840 839 839 839 839 839 839 839 840 841 842 842 843 844 844 845 845 846 846 846 847 847 847 848 848 848 849 849 849 850 850 850 850 850 850 850
856 856 856 856 856 856 856 856 856 856 857 857 857 858 858 858 858 858 858 858 858 858 857 857 856 856 855 854 853 853 852 851 851 850 850 849 849 848 848 847 846 846 845 845 844 844 843 843 843 842 842 842 841 841 841 842 842 842 843 843 844 844 845 845 845 845 846 846 846 846 846 847 847 847 848 848 848 849 849 849 849 850 850 850 850
855 855 855 855 855 855 855 855 855 856 856 857 857 857 858 858 858 858 858 858 858 858 858 857 857 856 856 855 855 854 854 853 852 852 852 851 851 851 850 850 849 848 848 847 847 846 846 846 845 845 845 845 844 844 844 845 845 845 845 845 846 846 846 846 846 846 845 846 846 846 846 846 847 847 847 848 848 848 848 848 848 848 849 849 849
854 854 854 855 855 855 855 855 855 855 855 856 856 857 857 858 858 858 858 858 858 858 858 858 857 857 857 856 856 855 855 854 854 854 853 853 852 852 852 851 851 850 850 849 849 848 848 848 848 847 847 847 847 846 847 846 846 846 846 846 846 846 846 846 846 846 845 845 846 846 846 846 846 846 847 847 847 847 847 847 847 848 848 848 848
Wind_Speed
20 20 20 21 21 21 21 20 20 20 19 19 19 19 19 19 18 17 16 15 14 15 15 14 13 12 10 8 7 8 9 10 10 9 8 6 5 4 4 4 5 6 6 6 6 6 7 8 9 10 10 11 11 12 13 16 15 14 12 8 8 10 8 7 10 11 9 8 8 10 13 14 13 13 14 17 19 19 17 16 15 14 13 12 10
20 20 20 21 21 21 21 21 21 21 20 20 19 18 18 18 18 17 16 15 14 14 14 14 13 11 10 8 8 8 9 10 10 9 8 6 5 5 5 5 6 7 7 6 6 6 6 7 8 10 11 11 12 12 13 15 15 13 11 8 7 8 8 7 10 11 11 10 9 11 14 13 12 14 15 16 19 18 15 14 13 12 12 11 9
20 20 20 20 21 22 21 21 22 21 20 20 19 17 17 18 17 17 16 16 15 13 13 13 13 11 11 9 9 9 9 10 10 10 9 8 7 7 6 6 7 7 7 7 7 6 6 7 7 8 10 11 12 13 13 15 14 11 11 11 9 9 9 8 9 11 12 11 11 12 14 14 12 14 15 16 18 17 13 12 12 11 11 10 8
19 20 20 20 20 21 21 22 22 21 21 20 19 18 17 17 17 16 16 15 14 13 12 13 12 12 11 10 9 9 9 10 11 10 10 9 8 7 6 7 7 6 6 6 6 6 6 6 6 7 8 10 11 12 13 14 14 11 11 12 12 11 12 11 10 11 13 13 12 12 14 15 13 13 15 15 17 15 11 11 12 11 11 11 9
19 19 20 20 21 22 22 22 22 21 21 20 20 18 17 17 16 15 16 15 14 13 12 13 13 13 12 10 10 10 10 10 10 11 10 9 8 6 5 5 6 5 5 4 5 5 5 5 5 5 5 6 9 10 12 12 13 13 12 12 12 13 14 14 12 11 14 14 14 13 13 14 12 12 14 13 14 13 11 11 12 11 12 11 9
15 17 19 20 21 22 22 23 23 22 22 21 21 19 17 17 16 15 15 14 13 12 12 13 13 13 11 10 10 11 10 10 10 10 10 8 7 5 3 3 4 4 4 3 3 4 4 4 5 5 4 4 5 6 7 8 8 9 9 8 9 10 13 15 12 11 12 13 14 15 14 12 11 12 14 13 11 11 10 10 11 11 10 9 8
11 14 17 20 21 22 21 21 21 21 20 19 19 19 18 17 15 14 13 12 12 12 12 13 13 13 12 11 11 11 10 10 9 9 9 8 6 4 2 2 3 3 3 2 2 3 4 4 4 4 4 3 3 3 4 5 5 5 5 5 5 8 11 13 11 10 10 11 13 13 13 14 12 11 15 15 12 9 9 9 8 9 9 8 9
10 12 13 13 15 17 18 16 16 18 19 19 17 16 16 16 15 13 12 11 10 10 11 13 12 12 12 11 11 11 11 10 10 9 9 8 6 4 3 3 4 5 4 3 4 4 4 4 4 4 4 4 4 4 4 4 4 5 5 5 5 8 11 13 12 11 11 12 13 13 13 14 13 12 15 16 12 10 11 10 8 9 10 11 11
7 7 5 5 7 11 13 13 13 16 18 17 16 14 13 12 12 11 11 11 9 9 11 11 11 11 12 11 11 11 11 10 10 9 7 6 5 4 4 4 5 6 6 5 5 5 5 5 5 5 5 4 5 5 5 5 5 6 7 7 7 9 12 14 13 12 12 13 13 13 13 13 14 13 13 14 12 11 13 12 9 10 11 10 10
7 7 7 7 9 12 14 14 14 16 16 14 13 12 11 8 7 8 9 10 8 8 10 11 11 12 12 11 10 10 9 9 8 7 6 5 5 5 5 6 6 7 8 7 7 7 7 7 7 7 7 7 7 8 7 8 7 7 8 9 10 12 14 15 14 13 13 13 13 14 14 13 13 13 12 13 14 12 12 12 10 11 10 8 8
12 11 10 9 9 12 14 14 16 16 16 16 15 14 13 10 9 10 9 9 8 7 10 12 11 12 11 10 9 8 8 8 8 7 6 6 6 6 7 8 8 9 10 10 9 9 9 9 9 9 9 10 10 11 11 11 10 10 10 11 11 13 15 17 17 15 14 12 12 14 14 12 13 14 13 14 15 12 11 11 11 12 10 8 7
16 13 11 9 8 10 11 12 13 14 14 15 17 19 19 17 16 14 11 9 8 9 11 12 11 11 10 9 9 8 8 8 9 9 8 7 7 8 9 10 11 11 12 12 12 12 11 11 11 12 12 12 12 13 14 14 14 13 13 13 14 15 15 16 17 18 17 14 13 14 13 12 15 17 16 15 15 14 12 11 11 11 10 9 7
21 17 13 11 10 10 10 10 10 9 9 11 13 16 17 17 16 13 10 9 9 9 11 11 10 10 10 10 10 9 9 9 10 10 10 9 10 11 12 13 13 14 14 14 13 13 13 13 14 14 14 14 14 15 16 16 16 16 15 14 15 16 15 15 15 16 17 16 16 17 16 15 17 19 18 16 16 15 13 11 10 10 8 7 6
26 23 18 14 12 11 10 10 10 8 8 9 9 9 10 11 11 10 8 7 8 9 10 9 9 9 10 10 9 9 9 10 11 11 11 11 12 13 14 15 15 15 15 15 15 15 15 15 15 15 15 15 16 17 17 17 18 18 16 16 16 16 14 14 12 12 14 14 15 17 18 18 18 18 18 16 15 14 13 11 10 9 7 6 7
30 27 24 19 16 14 13 12 12 12 11 11 10 9 7 7 7 6 5 5 6 7 7 6 7 7 7 7 7 8 9 10 11 11 11 12 12 13 14 15 15 15 16 16 16 16 16 15 15 15 15 16 17 18 17 17 18 19 18 17 16 16 14 13 12 12 13 13 13 15 17 17 16 17 17 17 16 14 12 10 10 9 7 6 5
32 30 29 26 22 20 17 15 15 14 13 13 12 10 8 6 6 4 3 3 3 2 2 3 4 4 4 4 5 6 8 9 10 10 11 11 11 11 12 14 14 15 16 17 17 17 16 16 15 15 16 17 19 17 15 16 18 19 19 17 16 15 14 13 12 12 12 13 12 12 14 15 14 15 16 16 14 12 11 10 9 8 7 6 5
32 31 31 29 28 26 23 21 20 18 15 15 14 11 8 6 6 5 5 5 4 4 2 1 1 1 1 1 1 3 5 6 7 8 9 9 10 11 12 12 13 14 14 15 16 16 17 16 16 16 17 18 18 16 14 16 18 19 19 18 16 15 13 12 12 12 11 12 11 12 13 14 14 14 14 12 11 11 10 9 10 9 7 5 5
28 28 28 28 28 28 27 27 26 25 23 21 19 17 13 10 8 7 6 6 7 7 6 5 5 4 3 2 1 1 3 4 5 7 8 8 8 10 11 11 12 13 13 14 15 16 17 17 17 16 16 17 16 14 14 16 18 20 20 19 17 15 14 14 13 13 13 12 13 14 15 15 14 13 12 11 10 10 8 7 8 7 4 3 3
26 25 24 25 25 25 25 25 25 26 26 25 24 22 19 17 15 12 12 11 10 9 8 7 7 6 4 2 1 1 3 4 5 6 7 7 7 8 10 11 12 12 14 14 15 16 17 17 17 16 16 15 14 13 14 17 19 21 20 19 17 16 15 15 16 16 16 17 16 16 16 15 14 12 11 10 9 7 6 6 6 5 3 3 2
24 24 24 24 23 23 22 22 21 21 21 21 20 20 19 18 16 15 16 15 13 12 11 10 10 9 8 6 3 2 3 4 4 5 6 6 7 7 9 9 9 11 13 15 15 16 16 17 17 16 15 15 14 13 15 18 20 21 20 18 18 17 18 18 18 18 19 20 19 18 17 16 14 12 11 9 8 7 7 7 6 4 2 2 1
21 22 23 23 23 22 22 21 20 19 18 16 16 15 14 14 12 12 14 14 13 13 14 14 15 13 11 10 9 8 8 8 7 6 6 6 7 7 8 7 7 7 10 12 12 12 13 13 15 15 15 17 16 15 16 18 19 20 20 20 19 18 19 20 20 20 20 20 19 18 17 15 13 12 11 10 9 8 7 6 6 4 3 2 0
17 18 20 20 20 20 19 18 18 18 17 15 15 15 13 12 10 10 10 10 10 11 12 14 15 14 13 12 11 11 10 10 10 9 9 9 8 8 8 8 8 8 9 10 10 11 12 13 14 15 15 17 18 17 17 19 20 21 21 22 20 19 20 22 22 21 20 20 19 17 15 14 13 13 12 12 11 9 7 5 3 2 1 1 1
15 16 17 17 17 17 16 15 15 15 15 15 15 15 14 12 12 11 11 10 10 11 12 12 13 13 14 14 14 13 12 11 10 10 10 10 11 11 9 9 8 9 10 11 11 13 14 15 15 15 14 16 18 19 19 20 22 23 23 23 21 20 22 24 24 23 21 19 18 16 14 13 13 12 12 12 10 8 6 3 2 1 1 2 2
14 15 15 15 15 14 14 13 13 13 14 14 14 14 14 13 13 12 12 12 12 12 13 13 12 12 12 13 14 14 14 14 13 12 11 10 11 11 10 9 9 9 9 10 11 13 15 16 17 17 16 16 17 19 20 22 24 25 24 24 23 23 25 26 25 24 21 18 16 14 13 12 12 12 12 11 9 7 5 4 3 4 4 4 4
13 13 14 14 14 13 13 13 13 13 13 13 13 14 13 13 13 13 13 13 13 13 13 14 13 12 11 12 13 13 13 14 14 13 12 11 11 12 12 11 11 9 8 8 11 12 13 14 16 17 18 17 16 17 19 21 24 25 23 22 23 25 26 27 26 23 19 16 14 13 13 12 12 12 11 10 8 6 5 5 5 5 5 5 4
14 14 15 14 14 14 14 14 15 14 14 14 14 14 14 13 13 14 14 14 14 14 14 14 14 12 12 12 12 12 12 12 12 12 12 11 11 13 13 13 13 10 10 11 13 14 13 15 17 18 17 16 14 14 15 16 19 22 20 18 20 24 26 27 25 20 16 15 15 15 15 15 14 13 11 9 8 7 6 7 6 5 4 3 2
14 15 14 14 14 15 15 16 16 16 16 16 15 14 14 14 14 14 15 15 14 14 14 14 14 13 12 12 12 12 12 12 12 12 12 12 12 13 14 15 14 13 14 15 17 17 16 15 16 14 12 10 10 11 12 12 13 16 15 15 18 22 24 24 23 20 18 17 18 18 18 17 15 13 12 10 8 8 7 7 6 4 3 1 1
13 13 13 12 13 15 15 16 17 16 16 17 15 14 13 14 14 14 13 13 12 12 11 11 12 12 11 12 12 12 12 13 13 14 14 15 15 15 15 16 16 16 15 15 16 16 14 12 11 10 9 10 10 10 10 10 11 11 12 14 16 20 22 22 20 18 19 20 21 20 19 17 15 14 13 10 9 9 8 7 5 4 2 1 0
12 13 13 13 14 15 16 17 18 17 17 17 16 16 15 14 14 12 12 12 12 11 9 8 8 9 9 9 10 10 10 11 12 12 13 14 15 15 16 16 17 17 16 13 13 13 13 13 14 13 12 11 12 12 13 13 13 13 14 17 19 20 20 18 16 17 18 19 20 19 17 17 16 15 13 11 11 10 8 6 5 3 2 1 1
11 12 13 14 15 16 16 18 19 20 19 17 16 15 16 17 16 14 13 14 13 12 11 10 9 9 8 7 7 7 8 10 11 11 11 12 13 14 15 16 16 16 15 13 11 12 13 15 16 16 15 15 16 18 17 17 18 19 20 21 22 21 18 15 15 17 18 17 16 16 16 16 16 15 13 12 11 9 7 5 4 3 2 1 1
10 11 12 14 16 17 17 18 19 20 20 20 17 14 13 14 16 15 14 13 13 13 13 12 12 11 10 9 8 7 7 9 10 10 11 11 12 13 14 15 15 15 14 12 10 10 11 12 13 14 15 17 20 21 21 21 24 26 26 25 24 23 21 19 18 19 19 18 17 17 17 16 15 14 13 12 11 9 7 5 3 2 2 1 1
10 11 12 14 16 17 17 18 19 19 20 20 20 17 12 10 11 13 13 13 13 13 13 13 13 13 12 11 10 9 9 9 9 10 11 12 12 13 13 13 13 13 12 10 10 10 10 10 11 11 14 16 18 20 22 24 27 29 30 28 26 25 24 22 22 22 23 22 21 20 18 17 16 15 14 13 11 8 6 4 3 2 2 1 1
12 12 12 14 15 16 17 17 18 18 18 18 18 18 14 10 8 9 9 11 13 14 15 14 14 13 13 13 12 10 9 9 9 9 10 11 12 12 12 12 12 11 10 9 10 9 9 9 8 9 11 13 13 15 19 22 25 29 32 30 27 26 24 24 25 25 23 21 21 20 20 19 18 16 15 13 10 7 5 4 3 3 2 2 1
13 12 13 14 14 14 15 16 16 16 17 16 14 13 12 10 9 9 9 10 11 13 14 15 15 14 13 14 13 11 9 9 8 9 10 11 11 11 10 9 9 8 7 8 10 9 9 8 8 7 8 10 9 11 15 17 18 23 28 30 29 28 28 27 26 24 22 21 20 20 19 19 18 16 15 12 9 6 4 4 4 3 3 2 1
12 12 13 14 14 14 15 15 15 14 14 12 11 10 9 9 9 9 10 10 11 11 11 13 14 15 15 15 15 12 10 10 10 10 11 12 12 12 10 8 7 7 6 7 10 13 14 15 15 13 10 8 8 9 12 13 14 15 19 27 32 33 30 28 24 22 21 21 20 20 20 19 17 16 13 11 9 7 5 5 4 4 3 2 1
11 10 11 14 15 15 15 15 14 14 12 10 9 8 8 8 8 8 8 9 9 9 9 10 12 13 15 17 16 14 12 11 11 11 12 12 12 13 11 8 7 7 7 7 7 10 14 17 19 18 13 8 8 10 12 15 16 13 13 22 33 34 28 24 22 21 21 21 20 21 21 19 17 15 12 10 9 7 5 5 4 4 3 2 2
9 9 10 13 14 15 15 15 15 14 13 10 8 8 8 8 8 8 8 8 9 9 9 10 11 12 15 18 18 16 14 12 11 11 11 10 11 11 11 9 9 9 8 7 7 7 9 11 14 16 15 13 11 11 13 16 18 15 12 16 25 26 21 20 22 23 23 22 21 21 20 18 16 15 13 11 9 7 6 5 5 4 4 3 2
9 9 10 12 13 15 15 15 14 13 11 9 8 8 9 9 9 9 10 10 10 10 10 10 11 12 14 16 18 17 16 15 14 14 14 13 11 11 10 9 9 9 9 9 8 8 8 8 9 11 12 13 12 13 14 15 17 17 15 18 23 22 20 22 25 25 24 23 22 20 19 17 15 14 12 10 8 7 6 6 5 4 4 3 2
9 9 9 11 12 14 15 16 15 12 9 8 8 9 9 10 11 11 11 11 11 11 11 11 11 12 12 14 16 16 14 13 14 14 14 14 12 10 9 9 9 9 11 10 9 8 9 8 8 9 8 9 10 12 13 14 17 19 20 23 25 23 22 24 26 24 23 22 21 19 17 15 14 12 9 7 6 6 6 6 5 3 2 1 1
7 7 8 9 11 13 15 16 16 14 11 9 8 9 10 10 11 10 10 10 10 10 10 10 10 11 12 14 14 13 10 10 11 11 10 11 10 9 8 9 8 9 11 11 9 8 9 10 9 8 7 7 8 9 10 11 14 18 21 23 23 21 22 24 24 23 22 21 19 17 16 14 13 10 7 6 6 6 6 6 5 3 2 1 2
5 5 6 8 10 11 13 15 16 15 12 10 8 8 9 9 9 9 9 10 10 10 10 10 9 9 11 13 13 11 8 8 9 9 9 9 9 8 8 9 9 11 13 12 9 7 7 9 10 8 5 5 6 6 7 9 11 14 17 20 22 22 22 22 21 20 18 17 15 14 13 13 11 8 6 6 6 6 6 6 5 3 2 1 2
3 4 4 5 7 8 10 12 13 14 13 11 9 8 8 8 8 9 9 10 10 10 10 10 9 9 12 15 16 12 10 9 9 10 9 9 9 9 9 9 11 13 13 12 11 9 8 7 7 7 5 3 1 2 3 5 8 11 15 17 19 20 20 19 18 16 14 12 12 11 11 10 9 7 6 6 6 5 5 5 4 3 2 1 2
4 3 2 3 4 5 7 9 11 12 12 11 10 9 9 8 9 9 9 9 10 10 11 11 10 10 12 16 17 14 11 11 11 11 11 10 10 10 10 11 13 13 12 12 12 11 9 7 7 6 5 4 4 5 6 6 8 11 14 16 17 18 18 16 15 13 12 11 10 10 9 9 7 6 6 6 5 4 4 4 3 3 2 1 2
4 2 1 1 2 3 4 6 8 10 11 10 10 11 11 10 9 10 10 9 10 10 11 11 11 11 12 14 15 13 12 12 12 11 11 11 10 10 11 14 16 14 14 15 15 13 12 11 11 10 10 9 10 11 12 13 14 15 17 18 18 18 16 14 12 12 12 11 9 8 9 8 6 5 5 5 5 4 5 4 4 3 2 2 2
4 2 2 2 1 1 2 3 5 7 8 8 9 10 11 9 8 9 9 9 9 10 10 11 11 11 11 12 12 12 12 12 13 12 11 11 12 13 14 16 17 16 16 17 18 18 18 17 17 16 15 15 15 16 16 17 17 17 17 17 17 16 14 12 11 11 10 9 8 7 8 7 6 5 5 5 5 5 5 5 4 4 3 2 2
5 4 3 3 2 1 2 2 2 4 5 5 6 8 9 8 7 8 9 9 9 9 9 9 10 10 10 11 11 11 11 12 13 15 15 16 18 19 19 19 19 18 18 19 20 21 21 20 19 17 16 16 15 15 15 15 15 15 15 14 13 13 12 11 11 10 10 9 8 8 7 6 5 5 5 5 6 6 6 5 4 3 3 2 1
4 4 4 3 2 2 3 4 3 1 2 2 4 5 6 6 6 7 8 8 8 7 7 7 8 9 9 10 10 10 10 12 14 17 18 19 21 22 22 22 21 21 20 21 21 21 21 20 19 18 17 16 15 15 14 13 13 12 11 10 10 10 9 9 8 8 7 7 6 6 6 5 5 5 4 4 6 7 7 5 4 3 3 3 2
1 3 4 4 4 4 5 5 4 3 2 1 2 2 4 5 5 5 5 6 6 6 6 6 7 7 8 9 9 8 9 11 15 17 18 18 19 20 20 20 20 19 19 18 18 19 18 17 16 16 16 16 16 15 15 14 13 12 11 9 8 7 6 5 5 4 4 4 4 5 5 5 5 5 5 5 6 7 6 5 4 3 3 3 2
1 2 3 3 2 2 3 3 3 4 4 3 2 3 2 3 3 3 2 3 4 5 6 7 6 5 6 7 8 7 7 9 11 14 15 15 15 15 15 15 15 15 15 15 15 15 15 14 14 13 13 13 13 13 12 12 11 10 9 8 7 5 4 3 2 2 2 3 3 4 4 4 4 5 5 5 6 6 5 4 3 2 2 3 3
1 1 1 2 2 2 3 3 2 3 4 4 4 4 4 2 3 2 2 2 2 3 5 6 5 5 5 6 6 7 8 8 9 10 11 11 11 11 11 11 12 12 13 13 14 14 14 13 13 13 13 12 12 11 11 10 10 10 9 8 7 6 5 4 3 3 2 2 2 2 2 3 3 4 4 4 4 4 3 3 3 3 3 3 4
1 2 3 3 4 5 5 4 2 2 3 4 5 6 6 5 4 2 2 3 2 2 3 4 4 4 4 5 6 8 9 10 10 9 10 10 9 8 8 9 9 10 11 12 12 13 13 13 13 13 13 12 12 12 11 10 10 9 8 7 6 5 5 4 4 4 4 3 3 3 3 3 3 3 3 3 2 1 1 2 2 3 3 4 4
Wind_Direction
193 195 195 198 199 198 197 197 194 191 188 188 186 184 184 183 181 179 175 171 173 176 181 183 179 173 164 153 140 132 132 135 139 144 148 142 126 115 116 123 125 119 109 98 94 95 103 114 122 126 131 141 149 157 169 177 180 173 161 141 139 155 156 144 143 148 161 163 150 158 166 162 160 159 157 158 157 153 148 148 148 148 150 151 152
193 195 195 196 197 198 199 197 194 192 191 192 191 188 186 184 182 180 177 174 172 175 181 181 178 173 164 156 149 141 138 140 141 140 140 137 126 117 114 120 125 123 115 103 94 92 104 122 129 129 133 140 149 160 172 181 188 190 192 187 165 165 167 154 150 152 159 165 162 165 169 167 166 168 166 163 165 164 161 162 163 163 166 166 167
193 195 195 195 195 196 197 196 195 194 194 195 194 192 189 186 184 182 180 178 175 177 182 179 176 172 165 160 159 155 146 144 147 146 141 137 134 126 118 121 125 123 120 112 102 93 100 120 134 141 148 155 164 174 181 189 196 201 210 215 203 187 182 171 162 160 159 163 170 173 175 176 175 174 174 171 172 173 174 177 181 184 187 185 185
196 195 195 195 195 195 196 196 195 194 196 197 197 196 193 188 185 185 184 181 177 179 182 179 175 171 167 165 166 164 154 148 152 156 152 145 143 138 131 132 131 125 122 116 109 104 103 112 125 142 162 174 183 192 198 205 211 215 223 231 227 213 199 190 180 171 165 167 174 179 181 183 182 179 179 179 180 181 184 188 190 196 202 202 205
199 196 195 195 196 196 196 195 195 194 195 196 198 198 195 191 187 186 186 184 181 182 181 178 176 173 171 169 167 164 156 150 154 159 161 158 152 145 138 143 143 135 128 121 115 112 111 119 126 130 151 181 196 206 213 220 226 230 235 238 237 229 210 199 192 181 174 172 175 181 183 183 184 185 185 184 185 188 194 200 203 209 214 216 220
197 194 194 194 196 196 196 195 193 192 192 194 197 198 197 194 189 186 187 186 186 186 182 178 177 176 174 168 163 160 156 153 153 156 160 161 158 155 152 160 162 150 141 134 126 117 113 124 137 135 137 169 197 209 218 225 232 239 242 237 233 226 208 199 193 186 182 176 174 180 185 185 186 190 192 191 189 190 193 202 211 216 216 214 210
196 198 199 196 195 196 196 191 183 181 185 191 196 196 194 194 189 187 189 190 191 190 184 179 176 176 174 168 164 163 162 162 159 155 156 157 159 166 181 203 203 190 177 171 166 147 134 133 142 149 152 166 185 195 210 220 227 239 247 243 228 207 194 192 191 187 186 181 178 180 185 190 190 193 199 200 198 197 195 191 194 197 194 186 179
196 202 202 193 190 194 194 183 173 179 188 192 196 194 193 194 191 188 191 193 194 193 189 185 181 179 177 174 174 174 173 174 170 165 163 165 173 185 203 224 222 217 216 214 205 192 176 171 170 175 179 183 192 196 198 204 209 215 222 228 219 196 185 187 192 192 190 187 185 184 184 189 192 196 201 202 201 205 203 193 178 173 174 173 171
183 184 169 149 159 177 181 170 170 187 191 187 188 188 185 188 191 192 195 195 193 193 196 196 192 189 187 185 186 185 183 182 180 178 179 183 195 211 229 238 232 227 226 222 221 220 212 207 203 205 210 213 218 220 217 216 213 210 211 212 209 199 190 190 192 192 189 186 185 185 186 189 192 193 196 197 200 204 203 194 172 162 165 166 172
117 120 113 115 135 156 164 161 168 186 189 184 186 182 167 166 192 208 206 201 199 202 208 210 206 204 201 198 199 200 198 196 195 197 201 207 222 236 241 240 235 231 230 231 235 235 232 232 229 226 230 234 236 237 236 235 230 225 222 215 210 207 200 196 194 191 190 190 186 187 190 192 191 190 191 197 203 202 193 186 171 165 167 163 173
92 100 103 103 119 139 147 149 155 169 181 188 190 180 165 174 215 234 227 214 210 218 224 221 215 214 213 212 218 222 223 224 223 225 229 234 246 255 253 246 239 235 236 237 240 243 243 244 245 243 243 244 246 247 246 245 242 237 234 227 220 216 210 205 201 196 194 193 189 191 194 192 191 194 197 200 202 195 184 180 174 173 180 187 191
83 89 97 101 110 126 133 136 142 153 167 178 181 178 177 190 216 237 245 239 231 229 229 224 219 222 223 223 230 237 240 241 238 238 240 243 251 261 264 258 249 245 244 242 244 248 250 251 251 252 251 250 249 250 249 248 246 242 237 229 225 222 217 215 212 206 203 197 192 195 196 191 192 197 199 197 194 188 181 179 176 178 191 205 204
79 82 89 97 101 114 122 126 136 150 161 169 177 186 193 202 219 237 252 255 245 229 221 218 218 226 232 234 240 245 247 248 246 248 250 251 253 257 260 259 255 252 251 250 251 254 256 257 257 258 259 257 253 251 250 248 245 241 236 228 222 219 217 218 218 215 214 208 201 200 201 199 199 199 200 197 189 180 174 172 174 178 188 200 198
74 75 81 88 92 99 105 111 119 128 139 151 165 185 202 214 225 236 245 244 235 221 214 213 218 228 237 242 248 253 256 258 259 262 263 262 258 256 255 255 253 253 255 257 259 261 262 262 261 262 263 261 259 256 251 246 241 235 228 220 216 213 211 211 210 211 212 211 209 210 207 204 203 202 199 195 185 175 169 169 171 177 186 199 203
70 69 73 77 84 91 95 103 108 108 116 128 138 150 168 191 208 217 219 217 217 217 217 224 232 238 244 247 253 260 262 263 266 268 269 268 264 261 260 260 259 259 260 263 265 268 269 268 266 264 265 267 267 262 252 243 236 228 221 215 211 209 207 209 210 211 210 208 208 211 206 201 202 199 190 182 178 175 173 174 179 186 191 196 202
67 66 68 70 74 80 85 94 99 98 103 110 114 118 124 132 142 147 150 160 168 184 203 219 229 235 244 253 259 266 268 271 273 273 273 273 273 273 273 272 271 269 268 269 271 273 274 272 270 269 271 273 271 264 250 237 228 221 217 212 209 208 208 209 211 212 210 206 204 205 202 195 191 187 179 174 175 176 175 176 177 179 179 176 180
65 65 66 68 71 74 77 82 86 88 90 93 95 98 99 102 110 113 110 108 101 93 96 110 124 89 41 339 300 305 306 298 286 280 282 283 282 280 280 280 281 280 277 275 276 277 276 275 275 275 274 275 272 262 245 230 222 219 216 210 206 206 204 201 200 199 201 204 201 193 188 182 176 173 171 169 170 168 166 166 164 166 177 183 183
65 66 67 69 72 74 75 77 79 80 78 78 79 82 81 77 80 90 94 89 80 73 67 57 51 54 62 78 87 7 336 314 291 284 286 287 286 285 284 284 285 284 282 281 280 282 282 282 280 277 272 271 269 257 238 227 221 219 215 208 202 199 195 191 187 183 182 185 181 173 170 169 167 168 166 163 162 160 158 160 160 167 186 188 178
66 67 69 70 72 73 73 74 75 76 76 75 74 75 75 73 73 78 84 85 80 72 65 60 57 58 63 84 151 288 311 302 294 293 292 292 292 291 290 289 288 286 286 287 286 287 288 288 286 279 271 266 260 246 234 228 224 222 217 207 199 194 191 188 183 176 171 169 167 164 162 162 163 164 160 156 156 158 157 154 148 154 171 157 154
69 68 69 69 69 69 69 69 69 70 73 76 76 77 78 75 71 69 72 77 80 79 78 77 76 73 71 76 75 29 5 344 326 319 314 314 313 305 300 296 292 290 291 293 292 290 290 291 290 283 271 261 252 241 235 231 229 228 220 208 203 200 194 187 182 177 172 168 166 165 163 161 160 158 155 151 151 151 151 145 131 121 129 131 144
69 69 68 67 67 67 67 68 69 68 70 73 75 77 78 77 73 67 65 68 72 76 77 78 79 78 75 74 68 56 48 40 27 10 354 342 335 329 326 319 309 302 299 298 297 295 295 297 296 289 273 260 252 244 237 234 233 232 223 216 216 211 198 189 183 179 175 170 167 164 161 158 153 149 146 143 141 138 136 136 128 116 103 94 351
69 69 69 68 67 66 66 67 69 71 72 73 74 74 75 79 81 76 71 70 70 70 70 70 72 71 66 63 60 55 51 46 40 34 26 15 4 355 348 339 331 324 317 310 307 305 302 299 295 290 276 261 254 248 242 237 235 231 225 222 221 212 199 191 184 177 173 170 165 160 155 150 144 142 139 137 136 134 129 126 124 119 120 133 186
69 68 68 67 66 64 63 63 66 69 70 73 75 75 75 76 75 73 72 70 65 61 59 59 63 64 60 54 48 43 37 33 29 25 22 21 18 12 6 358 347 334 322 314 309 307 306 302 297 293 285 270 258 251 246 238 232 228 225 221 216 207 200 193 183 176 172 168 162 155 150 147 144 140 136 132 132 133 131 127 125 126 136 141 142
72 70 69 68 66 64 62 61 62 64 66 70 72 72 71 71 68 66 64 61 56 52 49 49 52 55 54 49 43 38 32 25 21 16 9 3 1 359 359 358 355 346 332 321 315 310 305 300 295 293 291 284 269 256 248 238 228 223 222 220 213 204 197 189 181 176 172 166 159 152 148 146 143 138 136 136 137 138 136 132 128 123 116 110 110
77 76 74 71 69 66 63 61 59 60 61 64 65 65 65 65 63 61 59 57 55 51 46 45 46 46 46 42 38 35 30 23 18 15 11 2 353 346 341 337 337 337 331 324 321 318 313 308 303 295 289 289 280 262 252 242 230 224 225 223 214 202 193 185 179 174 168 161 156 150 145 143 143 143 143 142 141 140 137 134 127 118 111 107 104
81 80 76 72 69 67 67 65 63 63 64 63 62 60 60 59 57 56 53 51 49 46 43 40 39 39 38 34 28 24 22 20 15 10 8 6 359 353 345 337 328 315 306 305 306 306 306 307 306 296 286 286 283 269 259 247 232 225 224 218 205 196 191 185 177 168 161 158 155 151 148 147 147 149 148 144 143 146 151 152 144 127 115 110 117
80 78 73 70 68 68 69 69 66 66 68 69 66 63 60 57 54 51 48 43 40 37 35 33 31 29 25 20 15 9 5 4 3 359 358 355 351 349 347 342 333 316 302 297 295 296 296 293 290 283 274 277 283 275 263 248 232 224 218 209 201 195 192 187 178 170 168 165 159 155 154 152 152 153 151 149 154 161 162 162 153 135 122 132 166
77 73 71 70 69 69 68 66 65 67 70 71 71 69 66 60 55 51 48 45 41 36 32 30 27 23 17 9 5 1 356 354 352 349 346 343 339 336 334 335 333 324 308 295 289 290 289 277 266 261 257 258 258 249 234 218 210 207 203 200 202 199 192 187 182 178 176 170 163 158 156 155 156 158 157 161 171 171 163 160 153 137 128 153 239
74 70 70 69 68 65 61 60 62 65 68 70 72 73 70 63 58 58 59 57 52 44 37 31 23 18 13 4 360 357 351 349 346 340 335 331 327 325 323 321 324 322 312 296 282 276 269 261 257 252 246 239 226 210 197 186 182 183 185 187 193 193 189 185 181 176 171 165 160 157 158 160 163 165 167 174 181 177 166 159 153 142 137 139 325
73 71 71 67 64 61 58 57 59 60 61 64 68 71 67 60 59 68 72 63 54 48 41 32 20 13 9 1 358 354 345 342 341 338 333 326 320 317 314 311 314 314 305 290 273 260 255 256 254 245 232 219 206 195 188 182 176 173 174 179 183 182 178 175 169 162 158 157 158 161 165 167 169 173 177 184 187 184 175 164 155 146 134 121 325
74 74 72 67 64 63 61 58 57 55 54 56 58 61 61 57 58 67 74 66 55 49 43 35 26 19 14 7 1 355 347 344 344 343 340 334 327 320 312 308 308 307 298 283 263 249 246 246 244 235 223 214 205 197 191 185 177 172 171 174 176 173 168 165 162 158 157 159 163 168 171 173 177 183 188 192 192 190 185 178 165 146 128 121 302
80 77 71 65 64 65 63 59 56 53 51 49 48 48 51 52 51 56 64 66 61 55 48 40 35 31 25 17 7 358 352 351 349 348 345 341 337 331 323 316 309 301 290 272 252 243 241 238 236 232 226 221 216 208 200 192 185 180 176 173 170 168 165 164 164 163 163 166 170 173 177 181 186 191 194 195 194 190 187 182 165 150 156 195 224
87 79 69 64 62 62 61 57 54 52 49 47 45 42 41 39 32 30 36 48 56 59 56 49 43 40 35 29 19 6 359 358 356 354 353 352 349 343 336 327 315 298 280 258 244 243 246 246 250 251 244 240 234 221 209 200 190 183 179 174 171 170 169 168 167 168 170 174 178 180 182 185 188 192 195 196 196 192 186 180 175 177 190 199 187
91 79 69 66 65 63 60 57 53 51 49 47 44 41 36 32 26 18 14 17 28 41 49 47 43 41 39 34 26 15 6 4 1 2 6 6 2 1 0 353 337 316 288 259 246 252 267 277 284 284 269 258 249 231 218 210 197 186 181 177 175 174 173 170 170 173 177 179 181 182 184 186 189 193 197 197 195 193 189 187 190 192 192 188 185
93 81 71 69 69 66 62 58 54 53 51 48 46 43 37 30 24 21 17 12 9 14 22 28 31 33 31 28 25 20 15 10 7 9 12 9 6 10 17 17 7 352 325 288 269 267 273 279 283 285 281 269 256 240 225 214 205 195 186 180 176 175 173 171 173 178 180 180 181 184 187 189 192 195 197 196 196 196 193 191 194 191 182 181 199
95 85 74 71 69 66 61 58 56 56 56 55 52 47 40 35 30 25 21 16 10 5 2 5 14 22 24 23 23 23 21 16 10 8 6 4 8 17 20 15 8 2 347 325 302 284 277 276 274 274 273 268 260 252 240 225 215 210 201 186 178 174 172 172 175 178 179 182 186 189 190 192 194 194 193 194 195 195 192 189 187 180 175 184 219
97 87 79 73 68 62 59 57 57 57 60 62 59 52 46 41 37 33 27 20 14 9 4 1 3 9 14 16 20 26 29 26 21 17 11 7 13 23 26 18 10 4 351 338 329 311 294 284 275 266 262 265 268 262 252 239 225 217 210 192 179 174 175 178 179 179 181 186 191 192 193 195 195 192 190 192 192 189 186 183 178 173 174 189 226
93 85 81 74 66 60 57 55 55 57 61 64 58 53 48 43 40 38 33 28 22 17 14 10 8 7 6 8 14 22 26 27 29 30 29 26 22 21 22 20 15 8 358 348 341 331 318 308 298 281 267 263 267 266 261 250 235 221 210 197 190 191 195 190 184 184 188 190 191 193 196 197 194 190 189 189 186 181 178 177 174 173 176 190 239
90 85 81 74 66 60 56 54 54 55 59 59 54 49 46 43 41 39 35 33 31 27 23 19 16 11 5 3 7 14 17 18 21 23 28 31 28 21 19 19 13 6 360 353 347 344 339 333 324 309 289 273 270 269 261 248 235 223 213 204 201 201 199 191 187 190 195 194 192 193 196 196 190 186 184 181 176 173 172 170 169 174 184 203 283
96 89 85 76 68 62 55 52 52 52 53 53 51 47 43 40 38 36 33 30 28 24 21 19 16 13 8 6 7 11 12 14 15 14 16 21 22 20 21 20 14 9 8 4 358 354 352 352 348 331 303 284 276 270 257 241 231 223 217 211 205 197 192 189 190 193 196 197 196 196 195 191 187 182 178 175 171 166 165 167 168 170 187 256 326
109 99 90 78 69 63 57 53 52 52 53 54 51 47 43 39 34 33 32 28 25 21 19 19 16 14 14 18 24 28 26 20 20 18 17 18 20 21 23 22 21 23 22 19 19 16 4 1 6 2 334 295 277 266 251 234 221 213 208 203 196 188 186 187 190 193 196 200 198 194 190 190 189 185 181 177 171 162 164 172 175 176 189 288 342
136 125 101 79 70 65 59 56 55 54 55 56 56 52 48 41 36 35 33 29 27 24 21 20 18 14 18 28 38 43 39 30 29 28 25 26 28 27 26 28 32 33 33 32 33 32 28 25 29 30 18 352 298 231 215 209 201 196 192 187 182 178 177 177 180 185 191 193 193 192 195 198 199 197 192 185 175 168 170 174 176 185 203 283 347
143 134 114 83 74 65 59 59 59 56 56 58 61 60 55 46 38 36 33 28 27 27 24 21 18 14 19 30 37 42 40 36 36 34 33 33 33 31 32 38 41 41 40 40 37 36 41 54 63 63 59 66 88 106 117 131 146 154 157 157 155 154 154 156 163 172 179 185 193 204 213 213 206 199 194 186 177 175 178 177 180 200 220 257 335
140 145 181 145 88 47 46 58 61 56 53 55 59 59 57 50 42 38 34 29 28 28 27 24 20 16 19 27 32 35 37 38 38 38 37 37 36 36 42 49 52 52 53 53 53 58 70 79 83 86 89 93 97 100 104 111 117 120 123 127 130 131 134 142 155 168 178 188 200 214 218 213 200 192 192 191 188 188 188 190 196 205 219 254 316
192 210 232 210 193 332 358 40 59 56 50 50 54 56 55 53 48 40 35 31 30 29 28 27 26 24 24 26 29 31 34 37 40 42 42 43 44 45 51 57 61 63 65 66 69 75 81 86 89 93 97 101 103 103 104 106 107 107 109 113 118 123 131 144 159 171 182 192 202 209 208 200 193 193 198 202 203 200 197 198 202 205 217 253 310
223 237 252 243 228 263 322 348 38 55 51 52 58 57 54 55 53 43 36 36 36 33 30 27 27 29 30 31 33 34 34 36 43 48 53 58 61 60 61 64 68 71 75 77 80 83 86 88 91 94 97 101 102 103 103 103 103 105 110 117 125 135 146 158 171 181 188 190 191 194 194 194 197 203 203 204 206 203 199 200 204 211 227 247 294
218 232 243 244 243 276 303 308 314 354 31 62 76 68 59 61 58 47 42 42 40 35 31 27 24 26 29 31 34 37 39 45 53 60 65 71 74 75 75 75 75 77 79 81 82 83 85 87 90 92 95 98 99 99 99 100 102 106 114 123 135 147 158 167 175 182 186 186 187 191 196 202 209 210 205 202 201 199 201 211 221 231 239 244 282
209 241 248 256 269 282 290 295 295 287 272 188 123 102 78 68 61 51 46 43 35 30 31 30 25 24 27 30 34 38 43 53 63 71 75 79 82 85 86 87 87 86 86 85 85 84 84 84 85 86 89 91 93 95 97 99 101 105 109 115 124 134 145 158 169 181 194 204 212 215 214 214 215 214 207 200 196 197 205 217 225 231 238 245 272
264 272 267 270 283 294 302 309 302 276 256 233 196 180 147 90 71 57 46 37 27 22 26 30 30 30 31 35 40 44 47 54 66 74 76 76 76 77 80 83 86 88 87 87 87 87 87 87 87 87 87 86 86 87 88 89 92 93 93 93 93 93 97 112 137 171 197 207 213 217 216 214 215 213 205 197 195 201 211 224 233 242 253 260 269
244 263 288 305 333 336 326 325 318 282 260 243 221 208 196 154 108 80 40 18 6 6 15 23 29 35 38 42 48 54 57 60 65 70 70 67 65 66 68 71 76 79 82 84 85 85 86 87 87 87 87 87 85 85 86 87 87 88 86 84 84 82 81 83 86 90 102 120 133 156 176 184 189 192 190 189 195 206 222 241 259 275 281 279 278
293 313 309 303 304 304 302 298 292 275 260 243 228 223 216 193 157 111 24 345 329 338 360 15 28 39 48 55 60 64 68 68 66 65 64 62 61 63 65 68 73 78 81 84 85 85 85 85 85 84 84 83 81 80 80 78 75 73 70 65 60 56 52 47 48 51 58 68 80 96 116 131 142 151 156 162 177 202 232 255 275 287 287 280 278